DW9996 Weather Reports


time (UTC)temp
C
wind
direction
speed
KPH
gust
KPH
rain 1hr
cm
rain 24hr
cm
rain mn
cm
humidity
%
barometer
mb
20260507200029 19 317 11.3 22.5 0.00 0.00 0.00 31 1007.5
20260507194531 19 317 9.7 20.9 0.00 0.00 0.00 32 1007.6
20260507193029 18 347 8.0 20.9 0.00 0.00 0.00 33 1007.6
20260507191527 19 328 14.5 25.7 0.00 0.00 0.00 31 1007.6
20260507190026 20 355 11.3 22.5 0.00 0.00 0.00 32 1007.7
20260507184523 19 323 12.9 22.5 0.00 0.00 0.00 33 1007.9
20260507183022 20 288 14.5 24.1 0.00 0.00 0.00 36 1008.1
20260507181521 19 336 9.7 27.4 0.00 0.00 0.00 35 1008.2
20260507180019 19 338 14.5 24.1 0.00 0.00 0.00 36 1008.3
20260507174517 19 319 9.7 22.5 0.00 0.00 0.00 39 1008.5
20260507173026 18 329 9.7 38.6 0.00 0.00 0.00 40 1008.7
20260507171515 18 360 14.5 27.4 0.00 0.00 0.00 39 1008.8
20260507170013 18 304 11.3 24.1 0.00 0.00 0.00 40 1008.8
20260507164509 17 351 11.3 25.7 0.00 0.00 0.00 41 1008.7
20260507163007 17 321 12.9 24.1 0.00 0.00 0.00 41 1008.9
20260507161517 17 294 8.0 16.1 0.00 0.00 0.00 42 1008.9
20260507160006 17 335 11.3 19.3 0.00 0.00 0.00 41 1009.1
20260507154502 16 339 6.4 22.5 0.00 0.00 0.00 44 1009.2
20260507153057 14 282 6.4 12.9 0.00 0.00 0.00 46 1009.3
20260507151553 13 306 4.8 11.3 0.00 0.00 0.00 45 1009.6
20260507150050 11 288 4.8 9.7 0.00 0.00 0.00 44 1009.6
20260507144613 10 209 4.8 11.3 0.00 0.00 0.00 43 1009.2
20260507143052 9 284 1.6 4.8 0.00 0.00 0.00 42 1009.7
20260507141610 8 309 0.0 1.6 0.00 0.00 0.00 40 1009.7
20260507140049 8 16 0.0 6.4 0.00 0.00 0.00 40 1009.8
20260507134549 8 12 4.8 9.7 0.00 0.00 0.00 40 1009.8
20260507133046 7 355 3.2 6.4 0.00 0.00 0.00 49 1009.7
20260507131546 7 198 0.0 0.0 0.00 0.00 0.00 50 1009.7
20260507130045 7 198 0.0 1.6 0.00 0.00 0.00 51 1009.5
20260507124543 6 198 1.6 4.8 0.00 0.00 0.00 51 1009.6
20260507123046 6 92 0.0 14.5 0.00 0.00 0.00 50 1009.1
20260507121541 6 50 1.6 4.8 0.00 0.00 0.00 52 1008.8
20260507120041 6 50 3.2 4.8 0.00 0.00 0.00 53 1009.1
20260507114540 5 288 8.0 17.7 0.00 0.00 0.00 58 1009.0
20260507113037 5 294 6.4 12.9 0.00 0.00 0.00 55 1008.4
20260507111543 5 297 4.8 11.3 0.00 0.00 0.00 56 1008.3
20260507110037 5 293 3.2 9.7 0.00 0.00 0.00 59 1008.3
20260507104536 5 265 6.4 14.5 0.00 0.00 0.00 58 1008.2
20260507103036 6 296 6.4 14.5 0.00 0.00 0.00 52 1007.9
20260507101543 5 301 3.2 6.4 0.00 0.00 0.00 54 1008.1
20260507100037 5 298 3.2 8.0 0.00 0.00 0.00 56 1008.1
20260507094540 5 309 3.2 16.1 0.00 0.00 0.00 57 1008.3
20260507093034 5 301 3.2 8.0 0.00 0.00 0.00 52 1008.2
20260507091529 6 9 0.0 0.0 0.00 0.00 0.00 49 1008.2
20260507090029 7 9 1.6 4.8 0.00 0.00 0.00 48 1008.1
20260507084523 7 9 0.0 3.2 0.00 0.00 0.00 48 1007.9
20260507083013 8 360 6.4 14.5 0.00 0.00 0.00 45 1008.0
20260507081519 8 34 3.2 8.0 0.00 0.00 0.00 43 1008.1
20260507080008 8 46 0.0 3.2 0.00 0.00 0.00 43 1007.9
20260507074508 8 46 0.0 3.2 0.00 0.00 0.00 42 1008.0
20260507073007 9 60 0.0 6.4 0.00 0.00 0.00 40 1007.9
20260507071501 10 98 3.2 12.9 0.00 0.00 0.00 38 1007.9
20260507064557 11 76 3.2 11.3 0.00 0.00 0.00 39 1007.7
20260507063053 11 79 8.0 16.1 0.00 0.00 0.00 39 1007.9
20260507061550 11 49 6.4 9.7 0.00 0.00 0.00 43 1008.2
20260507060054 12 61 6.4 14.5 0.00 0.00 0.00 37 1007.9
20260507054549 12 50 8.0 24.1 0.00 0.00 0.00 37 1007.9
20260507053051 13 96 11.3 20.9 0.00 0.00 0.00 34 1007.6
20260507051545 13 94 6.4 12.9 0.00 0.00 0.00 33 1007.4
20260507050042 13 103 12.9 19.3 0.00 0.00 0.00 33 1007.4
20260507044554 13 99 9.7 16.1 0.00 0.00 0.00 33 1007.6
20260507043041 13 123 1.6 12.9 0.00 0.00 0.00 33 1007.5
20260507041541 13 93 4.8 11.3 0.00 0.00 0.00 33 1007.4
20260507040040 13 139 3.2 4.8 0.00 0.00 0.00 35 1007.5
20260507034542 13 162 1.6 8.0 0.00 0.00 0.00 34 1007.4
20260507033039 14 71 8.0 11.3 0.00 0.00 0.00 31 1007.1
20260507031539 15 80 6.4 14.5 0.00 0.00 0.00 30 1006.9
20260507030038 15 103 8.0 17.7 0.00 0.00 0.00 29 1006.6
20260507024542 15 108 8.0 16.1 0.00 0.00 0.00 28 1006.6
20260507023036 16 98 9.7 16.1 0.00 0.00 0.00 27 1006.6
20260507021536 17 84 9.7 14.5 0.00 0.00 0.00 26 1006.8
20260507020045 17 89 8.0 12.9 0.00 0.00 0.00 26 1006.7
20260507014536 18 98 9.7 12.9 0.00 0.00 0.00 24 1006.7
20260507013033 19 105 6.4 12.9 0.00 0.00 0.00 23 1006.8
20260507011530 19 96 3.2 8.0 0.00 0.00 0.00 22 1006.9
20260507010029 20 98 3.2 11.3 0.00 0.00 0.00 22 1007.2
20260507004531 20 85 9.7 14.5 0.00 0.00 0.00 23 1007.2
20260507003029 20 66 3.2 11.3 0.00 0.00 0.00 22 1007.3
20260507001534 20 25 4.8 12.9 0.00 0.00 0.00 22 1007.6
20260507000121 20 348 6.4 17.7 0.00 0.00 0.00 21 1007.7
20260506234517 20 5 0.0 14.5 0.00 0.00 0.00 21 1007.9
20260506233014 20 306 4.8 14.5 0.00 0.00 0.00 21 1008.0
20260506231513 20 334 6.4 20.9 0.00 0.00 0.00 21 1008.2
20260506230007 20 355 8.0 17.7 0.00 0.00 0.00 20 1008.5
20260506224504 20 254 6.4 12.9 0.00 0.00 0.00 20 1008.9
20260506223001 20 333 11.3 19.3 0.00 0.00 0.00 20 1009.2
20260506221558 19 265 6.4 16.1 0.00 0.00 0.00 21 1009.6
20260506220057 19 291 8.0 16.1 0.00 0.00 0.00 23 1009.9
20260506214608 19 253 4.8 14.5 0.00 0.00 0.00 21 1010.2
20260506213049 18 227 3.2 12.9 0.00 0.00 0.00 22 1010.4
20260506211547 17 321 6.4 17.7 0.00 0.00 0.00 21 1010.7
20260506210049 17 262 11.3 19.3 0.00 0.00 0.00 22 1010.9
20260506204543 17 290 8.0 12.9 0.00 0.00 0.00 22 1011.3
20260506203045 16 232 8.0 17.7 0.00 0.00 0.00 22 1011.7
20260506201537 17 232 8.0 16.1 0.00 0.00 0.00 22 1012.0